TimeMST,TemperatureF,Dew PointF,Humidity,Sea Level PressureIn,VisibilityMPH,Wind Direction,Wind SpeedMPH,Gust SpeedMPH,PrecipitationIn,Events,Conditions,WindDirDegrees,DateUTC
12:56 AM,23.0,17.1,78,30.32,10.0,SSE,5.8,-,N/A,,Clear,150,2013-12-27 07:56:00
1:56 AM,23.0,16.0,74,30.33,10.0,South,4.6,-,N/A,,Clear,170,2013-12-27 08:56:00
2:56 AM,21.0,15.1,78,30.36,10.0,South,5.8,-,N/A,,Clear,190,2013-12-27 09:56:00
3:56 AM,19.0,14.0,81,30.38,10.0,East,6.9,-,N/A,,Clear,100,2013-12-27 10:56:00
4:56 AM,21.0,15.1,78,30.38,10.0,Calm,Calm,-,N/A,,Clear,0,2013-12-27 11:56:00
5:56 AM,19.9,12.9,74,30.38,10.0,South,10.4,-,N/A,,Clear,170,2013-12-27 12:56:00
6:56 AM,21.0,14.0,74,30.37,10.0,South,3.5,-,N/A,,Clear,180,2013-12-27 13:56:00
7:56 AM,18.0,12.0,78,30.41,10.0,SE,6.9,-,N/A,,Clear,140,2013-12-27 14:56:00
8:56 AM,19.9,12.9,74,30.40,10.0,SSE,4.6,-,N/A,,Clear,160,2013-12-27 15:56:00
9:56 AM,21.9,12.9,68,30.40,10.0,Calm,Calm,-,N/A,,Clear,0,2013-12-27 16:56:00
10:56 AM,25.0,17.1,72,30.36,10.0,ESE,4.6,-,N/A,,Clear,110,2013-12-27 17:56:00
11:56 AM,32.0,18.0,56,30.29,10.0,Calm,Calm,-,N/A,,Clear,0,2013-12-27 18:56:00
12:56 PM,36.0,19.9,52,30.24,10.0,Calm,Calm,-,N/A,,Clear,0,2013-12-27 19:56:00
1:56 PM,36.0,21.0,55,30.21,10.0,Calm,Calm,-,N/A,,Clear,0,2013-12-27 20:56:00
2:56 PM,34.0,19.0,54,30.19,10.0,SSE,3.5,-,N/A,,Clear,160,2013-12-27 21:56:00
3:56 PM,33.1,21.0,61,30.18,10.0,South,6.9,-,N/A,,Clear,190,2013-12-27 22:56:00
4:56 PM,27.0,18.0,69,30.17,10.0,Calm,Calm,-,N/A,,Clear,0,2013-12-27 23:56:00
5:56 PM,24.1,17.1,75,30.17,10.0,SE,4.6,-,N/A,,Clear,130,2013-12-28 00:56:00
6:56 PM,26.1,18.0,71,30.14,10.0,South,6.9,-,N/A,,Clear,170,2013-12-28 01:56:00
7:56 PM,25.0,18.0,75,30.12,10.0,ESE,4.6,-,N/A,,Clear,120,2013-12-28 02:56:00
8:56 PM,24.1,17.1,75,30.11,10.0,NNE,3.5,-,N/A,,Clear,30,2013-12-28 03:56:00
9:56 PM,21.9,16.0,78,30.10,10.0,Variable,3.5,-,N/A,,Clear,0,2013-12-28 04:56:00
10:56 PM,35.1,18.0,50,30.04,10.0,ENE,8.1,-,N/A,,Clear,60,2013-12-28 05:56:00
11:56 PM,28.9,19.0,67,30.03,10.0,SE,8.1,-,N/A,,Clear,130,2013-12-28 06:56:00